H-2A R/B (38341 NORAD) Tracking and Keplerian Element Data

This shows tracking and keplerian element data for the satellite.

Feedback or suggestion? Click here.




ElementValue
Catalog38341
NameH-2A R/B
Epoch Orbit68868
Epoch Day34.81907138
Epoch Year2025
RAAN327.4357
Inclination98.4284
Eccentricity0.0047939
Argument of Perigee173.3494
Mean Anonmoly186.837
Mean Motion14.9162322
Decay Rate5.903E-05
L11 38341U 12025E 25034.81907138 .00005903 00000+0 58136-3 0 9992
L22 38341 98.4284 327.4357 0047939 173.3494 186.8370 14.91623220688689



Live tracking and technical data element details for H-2A R/B (NORAD 38341). H-2A R/B can be tracked NOW for your location showing map with azimuth and elevation plus other details from your city location.







IsCatalogInMostPopularTable: catalog: 38341, numindb: 1018
Update: records affected: 1



GetName: 38341 H-2A R/B

Hit Count: updated at: Wed, 14 May 2025 01:52:39 GMT